Location: Chihuahua
(28.6330°N, 106.0830°W)
Time: 04:46:23
(UTC-07:00)

Daily predictions for brighter satellites

Satellite Brightness Start Highest point End
(mag) Time Altitude Azimuth Time Altitude Azimuth Time Altitude Azimuth
COSMOS 2428 4.4 03:03:11 28° ENE 03:03:11 28° ENE 03:06:40 10° NE
Cosmos 2219 Rocket 4.5 03:03:36 16° ESE 03:04:30 17° E 03:07:57 10° ENE
Lacrosse 5 4.4 03:25:12 13° SE 03:25:12 13° SE 03:25:50 10° SE
Cosmos 2360 Rocket 3.9 03:24:41 25° N 03:24:41 25° N 03:26:57 10° NNE
Nadezhda 1 Rocket 4.1 03:36:06 68° NE 03:36:06 68° NE 03:41:30 10° N
Meteosat 1 Rocket2 4.4 03:41:50 73° W 03:42:47 88° S 03:53:43 10° E
ADEOS II 2.4 03:40:05 10° NNE 03:45:16 62° E 03:45:16 62° E
Cosmos 2333 Rocket 3.5 03:46:40 22° SSE 03:49:35 37° ESE 03:54:46 10° NE
PAYLOAD B 4.2 03:45:33 10° NNE 03:51:11 79° ESE 03:51:27 77° SE
Aureole 3 Rocket 4.3 03:52:06 64° W 03:52:23 65° W 04:01:14 10° N
Meteor 2-13 Rocket 4.5 03:46:30 10° N 03:52:39 77° E 03:58:44 10° S
Cosmos 2074 Rocket 3.9 03:50:25 10° N 03:55:57 65° NW 03:55:57 65° NW
EO 1 Del DPAF 4.4 03:59:07 42° ENE 03:59:07 42° ENE 04:02:28 10° N
Cosmos 2208 Rocket 4.2 04:01:35 62° NNW 04:01:35 62° NNW 04:06:22 10° N
Meteor 1-12 Rocket 4.1 03:59:50 10° N 04:05:31 80° W 04:11:15 10° S
Delta 142 4.3 04:05:35 62° W 04:06:44 80° S 04:12:20 10° ESE
ISS -1.8 04:08:04 28° E 04:08:04 28° E 04:10:00 10° ESE
Hubble Space Telescope 2.3 04:09:14 27° SE 04:09:14 27° SE 04:12:17 10° E
GOES 2 Rocket 3.2 04:10:28 81° WSW 04:10:43 88° S 04:16:35 10° E
Okean O Rocket 3.0 04:07:06 10° N 04:09:24 28° NNW 04:09:24 28° NNW
Meteor 1-13 Rocket 4.0 04:10:56 42° S 04:12:54 87° W 04:18:28 10° N
USA 215 3.9 04:09:47 10° ESE 04:16:08 54° NE 04:22:29 10° NNW
Cosmos 2333 4.2 04:16:04 55° W 04:16:19 55° WNW 04:21:53 10° N
Cosmos 1025 Rocket 4.2 04:14:17 10° SSE 04:18:24 43° E 04:22:32 10° NNE
Meteor PRIRODA 3.8 04:17:47 10° NNE 04:21:33 71° E 04:22:12 56° SSE
Okean-O 3.4 04:19:06 10° NNE 04:23:25 51° E 04:27:43 10° S
USA 229 DEB 3.6 04:20:51 37° SW 04:23:48 74° WNW 04:30:42 10° NNE
USA 229 3.6 04:20:55 36° SW 04:23:54 75° WNW 04:30:48 10° NNE
NOSS 0 Rocket 4.1 04:19:56 16° S 04:24:53 73° ESE 04:31:02 10° NNE
Cosmos 2285 Rocket 4.1 04:19:35 12° S 04:25:37 79° ESE 04:32:04 10° NNE
CZ-4B DEB 4.4 04:24:31 10° N 04:29:49 47° WNW 04:31:10 40° WSW
CZ-4B R/B 3.5 04:26:49 10° N 04:32:08 45° WNW 04:33:32 37° WSW
GPS 2-04 Rocket1 2.5 04:33:09 64° WSW 04:33:42 86° SSE 04:37:32 10° ENE
Lacrosse 4 Rocket 1.3 04:31:28 10° NNW 04:35:41 79° WSW 04:40:00 10° SSE
Cosmos 1980 3.7 04:32:12 13° SSW 04:37:16 83° ESE 04:42:55 10° NNE
NOSS 3-1 (C) 4.0 04:34:13 10° S 04:39:38 53° ESE 04:45:29 10° NE
ERS-2 2.0 04:36:48 10° N 04:40:29 69° WNW 04:41:50 36° SSW
Cosmos 468 Rocket 3.9 04:39:22 21° SSW 04:42:49 68° WNW 04:48:00 10° N
COSMOS 2428 3.7 04:45:14 25° WNW 04:45:52 25° WNW 04:50:31 10° N
GENESIS II 4.2 04:46:11 32° SW 04:47:54 67° WNW 04:51:58 10° NNE
Cosmos 2219 Rocket 2.5 04:45:23 27° WSW 04:47:59 45° WNW 04:53:19 10° N
Meteor 1-23 Rocket 4.2 04:42:39 10° S 04:48:27 85° W 04:54:16 10° N
Cosmos 1898 Rocket 4.5 04:43:45 10° N 04:48:46 49° ENE 04:53:44 10° SSE
Cosmos 962 Rocket 4.4 04:45:04 10° N 04:51:18 70° W 04:57:36 10° S
Meteor 2-19 Rocket 4.3 04:49:57 10° N 04:56:01 80° W 05:02:03 10° S
Meteor 2-9 Rocket 4.2 04:52:22 10° N 04:58:01 83° E 05:03:28 10° S
Radarsat Rocket 4.2 04:56:29 10° NNE 05:02:19 70° ESE 05:08:10 10° S
EXPRESS MD2 3.7 04:58:45 18° WSW 05:02:55 58° NW 05:06:09 10° NE
Okean 2 3.3 04:58:49 10° SSW 05:02:55 71° W 05:07:05 10° N
Cosmos 1844 Rocket 2.6 04:57:23 10° NNW 05:02:56 73° WSW 05:08:27 10° S
OTV 4 0.5 05:01:45 28° SW 05:02:59 62° SSE 05:05:44 10° ENE
Lacrosse 5 3.6 05:04:34 14° SW 05:04:34 14° SW 05:06:17 10° SSW
Okean 1-7 Rocket 4.2 05:00:10 12° SW 05:03:54 36° W 05:08:03 10° NNW
Cosmos 2154 Rocket 4.5 05:00:18 10° NNW 05:05:50 35° W 05:11:23 10° SSW
Cosmos 1441 Rocket 4.0 05:03:32 10° S 05:07:22 57° E 05:11:16 10° NNE
Tiangong 2 3.5 05:06:07 10° NNW 05:08:27 19° NNE 05:10:47 10° ENE
Cosmos 1763 Rocket 3.4 05:06:53 10° SSW 05:11:54 71° WNW 05:16:59 10° N
Cosmos 405 Rocket 3.1 05:08:24 10° SSW 05:12:19 46° W 05:16:13 10° N
Cosmos 1515 3.9 05:10:08 10° S 05:13:57 75° E 05:17:48 10° N
Cosmos 2237 Rocket 2.5 05:09:03 10° SW 05:14:28 47° WNW 05:19:58 10° N
Cosmos 2278 Rocket 3.1 05:10:34 10° N 05:16:08 54° ENE 05:21:38 10° SE
Meteor 2-4 Rocket 4.3 05:12:01 10° SW 05:17:03 33° WNW 05:22:00 10° NNW
Meteor 1-15 Rocket 4.4 05:11:58 10° N 05:17:54 89° E 05:23:49 10° S
Cosmos 1437 3.4 05:16:07 10° SSW 05:19:07 34° W 05:22:09 10° NNW
Cosmos 1937 Rocket 3.9 05:14:14 10° N 05:19:32 71° ENE 05:24:47 10° SSE
IUS-18 SRM-1 2.3 05:19:09 14° SW 05:20:38 33° SSE 05:22:57 10° E
Cosmos 1666 3.6 05:19:42 10° NNW 05:23:02 28° W 05:26:22 10° SSW
ADEOS II 3.9 05:22:31 10° NW 05:24:24 12° WNW 05:26:14 10° W
CZ-4 R/B 4.5 05:22:09 10° NE 05:24:41 17° E 05:27:13 10° SE
ASTRO E2 4.0 05:22:10 13° WSW 05:24:55 25° SSW 05:28:13 10° SSE
Cosmos 841 Rocket 3.4 05:19:51 10° SSW 05:24:58 66° WNW 05:30:05 10° N
Cosmos 1606 Rocket 3.5 05:21:25 10° N 05:25:54 74° W 05:30:19 10° S
SL-8 Rocket 4.0 05:21:39 10° NNW 05:27:42 57° W 05:33:41 10° S
NOAA 6 4.3 05:22:56 10° N 05:27:51 48° WNW 05:32:45 10° SSW
Cosmos 1743 4.4 05:26:03 10° WNW 05:27:57 13° W 05:29:52 10° WSW
Aureole 2 Rocket 3.9 05:26:36 10° WSW 05:29:32 21° WNW 05:32:19 10° NNW
Meteor 1-31 Rocket 4.4 05:30:19 10° NNW 05:32:42 16° WNW 05:35:05 10° WSW
ATLAS 5 CENTAUR R/B 3.1 05:27:33 10° NNW 05:33:43 62° ENE 05:40:18 10° SE
Cosmos 2333 Rocket 3.4 05:29:27 10° WSW 05:33:51 23° WNW 05:38:18 10° NNW
Cosmos 2298 Rocket 4.1 05:29:08 10° NNW 05:34:24 64° WSW 05:39:38 10° S
CZ-2C R/B 4.1 05:34:12 10° NNE 05:39:05 42° E 05:43:53 10° S
